This is the latest recevied weather packets stored in our database for station/object AG1T-20. If no packets are shown the sender has not sent any weather packets the latest 10 day(s).
| Time | Temp. | Humidity | Pressure | Rain* | Wind** | Luminosity | Snow |
|---|---|---|---|---|---|---|---|
| 1777564205 | 7.22° C | 65% | 1023.1 hPa | 0 mm | - | 841 W/m² | - |
| 1777563605 | 7.78° C | 65% | 1023.1 hPa | 0 mm | - | 818 W/m² | - |
| 1777563005 | 7.22° C | 70% | 1023.1 hPa | 0 mm | - | 793 W/m² | - |
| 1777562405 | 6.67° C | 70% | 1023.1 hPa | 0 mm | - | 766 W/m² | - |
| 1777561805 | 6.11° C | 69% | 1023.1 hPa | 0 mm | - | 746 W/m² | - |
| 1777561205 | 6.11° C | 75% | 1023.1 hPa | 0 mm | - | 716 W/m² | - |
| 1777560605 | 5° C | 76% | 1023.1 hPa | 0 mm | - | 682 W/m² | - |
| 1777560005 | 5° C | 77% | 1023.1 hPa | 0 mm | - | 652 W/m² | - |
| 1777559405 | 4.44° C | 80% | 1023.1 hPa | 0 mm | - | 616 W/m² | - |
| 1777558805 | 3.89° C | 81% | 1023.1 hPa | 0 mm | - | 580 W/m² | - |
| 1777558205 | 3.33° C | 83% | 1023.1 hPa | 0 mm | - | 544 W/m² | - |
| 1777557605 | 3.33° C | 82% | 1023.1 hPa | 0 mm | - | 506 W/m² | - |
| 1777557005 | 2.78° C | 85% | 1022.8 hPa | 0 mm | - | 466 W/m² | - |
| 1777556405 | 2.22° C | 88% | 1022.8 hPa | 0 mm | - | 421 W/m² | - |
| 1777555808 | 1.67° C | 92% | 1022.8 hPa | 0 mm | - | 375 W/m² | - |
| 1777555205 | 0° C | 95% | 1022.8 hPa | 0 mm | - | 326 W/m² | - |
| 1777554605 | 0° C | 95% | 1022.8 hPa | 0 mm | - | 26 W/m² | - |
| 1777554005 | -0.56° C | 95% | 1022.8 hPa | 0 mm | - | 21 W/m² | - |
| 1777553405 | -0.56° C | 95% | 1022.4 hPa | 0 mm | - | 17 W/m² | - |
| 1777552805 | -0.56° C | 95% | 1022.4 hPa | 0 mm | - | 12 W/m² | - |
| 1777552205 | -0.56° C | 95% | 1022.4 hPa | 0 mm | - | 7 W/m² | - |
| 1777551605 | -0.56° C | 94% | 1022.4 hPa | 0 mm | - | 3 W/m² | - |
| 1777551005 | 0° C | 94% | 1022.4 hPa | 0 mm | - | 0 W/m² | - |
| 1777550405 | 0° C | 95% | 1022.4 hPa | 0 mm | - | 0 W/m² | - |
| 1777549805 | -0.56° C | 94% | 1022.3 hPa | 0 mm | - | 0 W/m² | - |
* Rain latest hour (hover to see other rain measurements)
** Current wind speed in m/s (hover to see current wind gust speed)